Regional Weather Roundup
Issued by NWS

Home | Current Version | Previous Version | Text Only | Print | Product List | Glossary On
Versions: 1 2 3 4 5 6 7 8 9 10 11 12 13 14 15 16 17 18 19 20 21 22 23 24 25 26 27 28 29 30 31 32 33 34 35 36 37 38 39 40 41 42 43 44 45 46 47 48 49 50
000
ASUS46 KPQR 181710
RWROR

OREGON REGIONAL WEATHER ROUNDUP
NATIONAL WEATHER SERVICE PORTLAND OR
1000 AM PDT SUN AUG 18 2019

NOTE: "FAIR" INDICATES FEW OR NO CLOUDS BELOW 12,000 FEET WITH
NO SIGNIFICANT WEATHER AND/OR OBSTRUCTIONS TO VISIBILITY.

ORZ001>013-181800-
NORTHWEST OREGON


CITY           SKY/WX    TMP DP  RH WIND       PRES   REMARKS
ASTORIA        LGT RAIN  61  56  83 NW9       29.90S
TILLAMOOK      CLOUDY    63  52  67 CALM      29.92R
NEWPORT        CLOUDY    63  54  72 NW3       29.93S
PORTLAND       CLOUDY    65  55  70 N3        29.89S
VANCOUVER WA   CLOUDY    65  54  67 W7        29.89R
SCAPPOOSE      CLOUDY    65  55  70 CALM      29.88S
HILLSBORO      CLOUDY    63  54  72 CALM      29.89S
AURORA         CLOUDY    65  54  67 VRB3      29.90S
MCMINNVILLE    CLOUDY    60  54  80 N3        29.89S
SALEM          PTSUNNY   65  53  65 N6        29.88S
CORVALLIS      CLOUDY    68  55  63 NE9       29.89S
EUGENE         MOSUNNY   68  55  63 NE9       29.89S
$$

ORZ021-028-181800-
SOUTHWEST OREGON


CITY           SKY/WX    TMP DP  RH WIND       PRES   REMARKS
NORTH BEND     SUNNY     65  58  78 NW3       29.90S
BROOKINGS      CLOUDY    55  53  93 S3        29.87R
ROSEBURG       SUNNY     67  54  63 VRB5      29.87S
SEXTON SUMMIT  SUNNY     67  50  54 CALM      29.93R
GRANTS PASS    FAIR      68  50  52 CALM      29.88S
MEDFORD        SUNNY     67  48  50 CALM      29.85S
$$

ORZ014>016-041-181800-
COLUMBIA GORGE


CITY           SKY/WX    TMP DP  RH WIND       PRES   REMARKS
TROUTDALE      CLOUDY    64  55  72 CALM      29.89S
HOOD RIVER     SUNNY     66  52  59 W13G22    29.84R
THE DALLES     SUNNY     71  53  52 N7        29.81F
$$

ORZ029>031-041-044-049-050-061>064-502-503-505>511-181800-
EASTERN OREGON


CITY           SKY/WX    TMP DP  RH WIND       PRES   REMARKS
MADRAS         SUNNY     68  43  40 CALM      29.89S
REDMOND        SUNNY     74  44  34 S7        29.89S
BEND           SUNNY     73  43  33 E6        29.90S
PRINEVILLE     SUNNY     70  43  37 SE3       29.90S
KLAMATH FALLS  SUNNY     68  47  46 E5        29.96S
LAKEVIEW       SUNNY     70  44  39 VRB3      30.01F
HERMISTON      SUNNY     71  52  50 W6        29.82S
PENDLETON      SUNNY     72  46  39 VRB5      29.84R
JOHN DAY       SUNNY     70  41  35 E7        29.94S
MEACHAM        SUNNY     72  38  29 VRB3      29.92R
LA GRANDE      SUNNY     65  47  52 CALM      29.91S
BAKER CITY     SUNNY     73  48  41 VRB3      29.93S
BURNS          SUNNY     70  40  33 CALM      29.98S
ROME             N/A     77  36  22 VRB3      29.95S
ONTARIO        SUNNY     75  49  39 E5        29.91R
$$



USA.gov is the U.S. government's official web portal to all federal, state and local government web resources and services.